Location: Hains Lake
(37.8540°N, 99.8578°W)
Time: 03:37:43
(UTC+00:00)

Vanguard 1 - Pass Details

Date: 06 December 2021
Orbit: 652 x 3830 km, 34.2° (Epoch: 21 January)

Event Time Altitude Azimuth Distance (km) Brightness Sun altitude
Exits shadow 08:20:55 53° 102° (ESE) 3,997 12.9 -61.8°
Drops below altitude 10° 08:32:40 10° 94° (E) 5,649 14.2 -59.7°
Sets 08:36:13 0° 94° (E) 6,333 14.6 -59.0°
